Location: College Park
(38.9810°N, 76.9370°W)
Time: 05:41:09
(UTC-05:00)

N. Korean satellite - Pass Details

Date: 10 February 2018
Orbit: 459 x 514 km, 97.2° (Epoch: 21 February)

Event Time Altitude Azimuth Distance (km) Brightness Sun altitude
Rises 18:25:42 0° 183° (S) 2,480 10.3 -9.5°
Reaches altitude 10° 18:27:50 10° 191° (S) 1,604 9.5 -9.9°
Maximum altitude 18:31:04 39° 262° (W) 710 8.1 -10.6°
Drops below altitude 10° 18:34:19 10° 332° (NNW) 1,610 9.4 -11.2°
Sets 18:36:27 0° 341° (NNW) 2,490 10.3 -11.6°
